Weather History for Cleveland, OH

Change the Weather History Date:

Monday, July 15, 2013

  Actual Average Record
Temperature  
Mean Temperature 84 °F 74 °F  
Max Temperature 91 °F 83 °F 97 °F (1980)
Min Temperature 76 °F 65 °F 48 °F (1960)
Degree Days  
Heating Degree Days 0 0  
Month to date heating degree days 0 0  
Since 1 June heating degree days 39 42  
Since 1 July heating degree days 0 0  
Cooling Degree Days 19 9  
Month to date cooling degree days 155 130  
Year to date cooling degree days 433 357  
Since 1 June cooling degree days 319 298  
Growing Degree Days 33 (Base 50)    
Moisture  
Dew Point 70 °F    
Average Humidity 67    
Maximum Humidity 82    
Minimum Humidity 52    
Precipitation  
Precipitation 0.00 in 0.10 in 0.96 in (1996)
Month to date precipitation 2.92 1.62  
Year to date precipitation 23.41 20.19  
Snow  
Snow 0.00 in 0.00 in - ()
Month to date snowfall 0.0 0.0  
Since 1 June snowfall 0.0 0.0  
Since 1 July snowfall 0.0 0.0  
Snow Depth 0.00 in    
Sea Level Pressure  
Sea Level Pressure 30.29 in    
Wind  
Wind Speed 6 mph (NW)    
Max Wind Speed 12 mph    
Max Gust Speed 15 mph    
Visibility 10 miles    
Events      
T = Trace of Precipitation, MM = Missing Value Source: NWS Daily Summary

Daily Weather History Graph

Daily Weather History Graph

Search for Another Location

Airport:

Trip Planner

Search our weather history database for the weather conditions in past years. The results will help you decide how hot, cold, wet, or windy it might be!

Date:

Astronomy

Jul. 15, 2013 Rise Set
Actual Time 6:07 AM EDT 8:59 PM EDT
Civil Twilight 5:34 AM EDT 9:31 PM EDT
Nautical Twilight 4:52 AM EDT 10:13 PM EDT
Astronomical Twilight 4:04 AM EDT 11:01 PM EDT
Moon 1:31 PM EDT (7/15) 12:06 AM EDT (7/15)
Length of Visible Light 15h 57m
Length of Day
14h 52m
Waxing Crescent, 45% of the Moon is Illuminated
Jul 15
Waxing Crescent
Jul 15
First Quarter
Jul 22
Full
Jul 29
Last Quarter
Aug 6
New

Hourly Weather History & Observations

Time (EDT) Temp. Heat Index Dew Point Humidity Pressure Visibility Wind Dir Wind Speed Gust Speed Precip Events Conditions
12:51 AM 77.0 °F - 70.0 °F 79% 30.27 in 10.0 mi Calm Calm - N/A   Partly Cloudy
1:51 AM 77.0 °F - 71.1 °F 82% 30.27 in 10.0 mi Calm Calm - N/A   Overcast
2:51 AM 77.0 °F - 70.0 °F 79% 30.27 in 10.0 mi South 5.8 mph - N/A   Scattered Clouds
3:51 AM 77.0 °F - 70.0 °F 79% 30.27 in 10.0 mi SSW 6.9 mph - N/A   Partly Cloudy
4:51 AM 77.0 °F - 69.1 °F 76% 30.28 in 10.0 mi South 6.9 mph - N/A   Partly Cloudy
5:51 AM 75.9 °F - 69.1 °F 79% 30.29 in 10.0 mi South 4.6 mph - N/A   Mostly Cloudy
6:51 AM 75.9 °F - 69.1 °F 79% 30.30 in 10.0 mi South 3.5 mph - N/A   Scattered Clouds
7:51 AM 78.1 °F - 70.0 °F 76% 30.32 in 10.0 mi South 4.6 mph - N/A   Mostly Cloudy
8:51 AM 80.1 °F 83.2 °F 70.0 °F 71% 30.33 in 10.0 mi SSW 5.8 mph - N/A   Overcast
9:51 AM 81.0 °F 84.9 °F 71.1 °F 72% 30.33 in 10.0 mi SW 6.9 mph - N/A   Overcast
10:51 AM 84.0 °F 89.6 °F 72.0 °F 67% 30.33 in 10.0 mi SW 4.6 mph - N/A   Mostly Cloudy
11:51 AM 88.0 °F 92.9 °F 70.0 °F 55% 30.33 in 10.0 mi WSW 6.9 mph - N/A   Mostly Cloudy
12:51 PM 89.1 °F 94.1 °F 70.0 °F 53% 30.32 in 10.0 mi NNW 3.5 mph - N/A   Scattered Clouds
1:51 PM 90.0 °F 96.4 °F 71.1 °F 54% 30.30 in 10.0 mi North 9.2 mph - N/A   Scattered Clouds
2:51 PM 89.1 °F 94.1 °F 70.0 °F 53% 30.30 in 10.0 mi NNE 6.9 mph - N/A   Scattered Clouds
3:51 PM 89.1 °F 94.1 °F 70.0 °F 53% 30.29 in 10.0 mi NNE 8.1 mph - N/A   Scattered Clouds
4:51 PM 89.1 °F 95.0 °F 71.1 °F 55% 30.28 in 10.0 mi North 5.8 mph - N/A   Partly Cloudy
5:51 PM 90.0 °F 96.4 °F 71.1 °F 54% 30.27 in 10.0 mi North 6.9 mph - N/A   Scattered Clouds
6:51 PM 88.0 °F 92.9 °F 70.0 °F 55% 30.26 in 10.0 mi North 8.1 mph - N/A   Partly Cloudy
7:51 PM 87.1 °F 92.8 °F 71.1 °F 59% 30.26 in 10.0 mi NNE 6.9 mph - N/A   Partly Cloudy
8:51 PM 84.0 °F 87.8 °F 69.1 °F 61% 30.27 in 10.0 mi North 6.9 mph - N/A   Scattered Clouds
9:51 PM 84.0 °F 87.8 °F 69.1 °F 61% 30.27 in 10.0 mi NE 8.1 mph - N/A   Scattered Clouds
10:51 PM 82.9 °F 85.8 °F 68.0 °F 60% 30.29 in 10.0 mi East 3.5 mph - N/A   Scattered Clouds
11:51 PM 81.0 °F 84.1 °F 69.1 °F 67% 30.29 in 10.0 mi Calm Calm - N/A   Partly Cloudy